Shelton, WA
on Sunday, November 18, 2012

Sunday
Previous Day Next Day
Daily Summary
 ActualAverage (KOLM)Record (KOLM)
Temperature
Mean Temperature °F 43°F  
Max Temperature 48°F 49°F 61°F (1968)
Min Temperature 42°F 36°F 20°F (1994)
Degree Days
Heating Degree Days 20 22  
Month to date heating degree days 366  
Since 1 July heating degree days 1160  
Cooling Degree Days 0 0  
Month to date cooling degree days 0  
Year to date cooling degree days 106  
Moisture
Dew Point 43°F   
Average Humidity 92    
Maximum Humidity 97    
Minimum Humidity 86    
Precipitation
Precipitation 1.30 in 0.31 in 2.02 in (1958)
Month to date precipitation 4.99  
Year to date precipitation 38.90  
Wind
Wind Speed 7 mph   
Max Wind Speed 20 mph   
Max Gust Speed 31 mph   
Visibility 10 miles   
Events Rain   

Key: T is trace of precipitation, MM is missing value
Source: NWS Daily Summary
Time(PST)TemperatureDew PointHumidity Pressure Visibility Wind DirectionWind SpeedGust SpeedPrecipitationEvents Conditions
12:30 AM 42.8°F 41.0°F 93% 29.68 in 10.0 miles SE 6.9 mph - 0.06 in   Overcast
12:43 AM 42.8°F 41.0°F 93% 29.68 in 10.0 miles SE 5.8 mph - 0.06 in   Overcast
12:53 AM 42.1°F 41.0°F 96% 29.69 in 10.0 miles SE 5.8 mph - 0.06 in   Overcast
1:53 AM 42.1°F 41.0°F 96% 29.72 in 10.0 miles SSW 3.5 mph - 0.01 in Rain Rain
2:53 AM 42.1°F 41.0°F 96% 29.72 in 10.0 miles SSE 5.8 mph - 0.17 in Rain Light Rain
3:53 AM 42.1°F 41.0°F 96% 29.71 in 10.0 miles SE 6.9 mph - 0.04 in Rain Light Rain
4:25 AM 42.8°F 41.0°F 93% 29.71 in 10.0 miles SSE 5.8 mph - 0.05 in Rain Rain
4:48 AM 42.8°F 41.0°F 93% 29.71 in 10.0 miles ESE 9.2 mph - 0.15 in Rain Light Rain
4:53 AM 43.0°F 42.1°F 97% 29.72 in 10.0 miles ESE 9.2 mph - 0.15 in Rain Light Rain
5:53 AM 43.0°F 41.0°F 93% 29.72 in 10.0 miles SE 6.9 mph - 0.14 in Rain Rain
6:19 AM 42.8°F 41.0°F 93% 29.71 in 10.0 miles SE 4.6 mph - 0.05 in Rain Light Rain
6:53 AM 42.1°F 41.0°F 96% 29.73 in 10.0 miles SSE 4.6 mph - 0.08 in Rain Light Rain
7:53 AM 42.1°F 41.0°F 96% 29.73 in 10.0 miles Calm Calm - 0.08 in Rain Light Rain
8:08 AM 42.8°F 41.0°F 93% 29.72 in 10.0 miles Calm Calm - 0.02 in Rain Light Rain
8:30 AM 42.8°F 41.0°F 93% 29.71 in 10.0 miles Calm Calm - 0.05 in Rain Light Rain
8:53 AM 42.1°F 41.0°F 96% 29.72 in 10.0 miles Calm Calm - 0.08 in Rain Light Rain
9:53 AM 44.1°F 42.1°F 93% 29.72 in 10.0 miles NNE 3.5 mph - 0.01 in   Overcast
10:14 AM 44.6°F 42.8°F 93% 29.71 in 10.0 miles ESE 8.1 mph - N/A   Overcast
10:53 AM 45.0°F 43.0°F 93% 29.73 in 10.0 miles SE 5.8 mph - 0.01 in Rain Light Rain
11:11 AM 44.6°F 42.8°F 93% 29.71 in 10.0 miles SE 5.8 mph - 0.01 in Rain Light Rain
11:53 AM 46.0°F 43.0°F 89% 29.70 in 10.0 miles SE 3.5 mph - 0.03 in Rain Light Rain
12:53 PM 46.9°F 43.0°F 86% 29.68 in 10.0 miles SSE 9.2 mph - 0.00 in   Overcast
1:53 PM 46.9°F 43.0°F 86% 29.65 in 10.0 miles SSE 9.2 mph 16.1 mph 0.01 in Rain Light Rain
2:53 PM 46.9°F 43.0°F 86% 29.62 in 10.0 miles SSE 6.9 mph - 0.01 in Rain Light Rain
3:53 PM 46.9°F 43.0°F 86% 29.59 in 10.0 miles SSE 9.2 mph - 0.00 in Rain Light Rain
4:53 PM 46.9°F 44.1°F 90% 29.55 in 10.0 miles ESE 5.8 mph - 0.04 in Rain Light Rain
5:53 PM 46.9°F 43.0°F 86% 29.50 in 10.0 miles SSE 19.6 mph 31.1 mph 0.11 in Rain Light Rain
6:53 PM 46.9°F 43.0°F 86% 29.50 in 10.0 miles South 17.3 mph 31.1 mph 0.03 in Rain Light Rain
7:25 PM 46.4°F 44.6°F 93% 29.49 in 10.0 miles SSE 16.1 mph 25.3 mph 0.01 in Rain Light Rain
7:53 PM 46.9°F 44.1°F 90% 29.51 in 10.0 miles SSE 13.8 mph 24.2 mph 0.04 in Rain Light Rain
8:53 PM 46.4°F 44.6°F 93% 29.52 in 10.0 miles SSE 9.2 mph - N/A Rain Light Rain
9:53 PM 46.9°F 45.0°F 93% 29.53 in 10.0 miles SE 6.9 mph - 0.08 in Rain Rain
10:15 PM 48.2°F 44.6°F 87% 29.52 in 10.0 miles SE 8.1 mph - 0.02 in Rain Light Rain
10:40 PM 48.2°F 46.4°F 93% 29.52 in 10.0 miles SSE 13.8 mph 20.7 mph 0.06 in Rain Light Rain
10:53 PM 46.9°F 46.0°F 97% 29.52 in 10.0 miles SSE 6.9 mph - 0.10 in Rain Light Rain
11:51 PM 48.2°F 46.4°F 93% 29.52 in 10.0 miles SSE 10.4 mph - 0.02 in   Overcast
11:53 PM 48.0°F 46.0°F 93% 29.53 in 10.0 miles SSE 9.2 mph - 0.02 in   Overcast
Moon Phase
Nov. 18 Nov. 20 Nov. 28 Dec. 06 Dec. 13
Sunrise:07:21 AM (PST) Moon Rise:11:47 AM (PST)11/18
Sunset:04:33 PM (PST) Moon Set:10:05 PM (PST)11/18

Copyright © 2014 The Weather Underground, Inc.